STARLINK-4450, 53491

Orbit data source: Space-Track

STARLINK-4450, 53491 is a payload satellite owned by SpaceX/Seattle (US) in SSO that was launched on Fri, 12 Aug 2022 UTC via an FALCON 9 launch vehicle from the Air Force Western Test Range (AFWTR). Payload-class satellites include a variety of spacecraft equipped with specific instruments for various scientific and technological missions. These include communications satellites like Starlink; space stations such as the ISS; scientific satellites like the Hubble; Earth observation satellites from companies like Planet Labs, Umbra, and HawkEye 360; GPS; miniature CubeSats for education and research; and military/defense satellites.

Loading next visibility...
Identifier
53491, 2022-099AC
Orbit
SSO
Country
Flag of USUS
Related business
Manufacturer
SpaceX/Seattle
Mission
Operational Commercial Communications
Bus & Motor
STARLINK, Unknown motor
Mass
300 kg wet, ~275 kg dry
Launch date (UTC)
2022-08-12 (3 years ago)
Launch vehicle
FALCON 9
Launch site
Air Force Western Test Range (AFWTR)
Object type
Payload
Rocket body
Debris
Shape & HBR
Box + 1 Pan, 4.4 m
Radar Cross Section
13.562 m², Large (>1 m²)

Expand to show TLE details & history
Last TLE update: 13 hours ago

TLE from 13 hours ago
0 STARLINK-4450
1 53491U 22099AC  25259.12092061 -.00000580  00000-0 -40598-4 0  9993
2 53491  97.6025  19.3169 0000693 116.4521 243.6774 15.01258901169797
Epoch: 2025-09-16T02:54Z
TLE epoch observation values (Epoch: 2025-09-16T02:54:07.54Z)
Latitude
-0.00009°
Longitude
-19.53028°
Altitude
566.286 km
Speed
7.578 km/s
True Right ascension
01h 17m 16s
True Declination
0° 00' 00"
Sunlit
Object was in full shadow at epoch
Visualization orbit readout
Latitude
Unknown
Longitude
Unknown
Altitude
Unknown
Speed
Unknown
Apparent Right ascension
Unknown
Apparent Declination
Unknown
Sunlit
N/A
Visualization observer readout
Local Sidereal Time
08:12:44
Azimuth
Unknown
Elevation
Unknown
Doppler factor
Unknown
Orbital elements
Apogee altitude
560.493 km
Perigee altitude
559.532 km
Semi-major axis
6,938.15 km
Eccentricity
0.00007
Inclination
97.6025°
RAAN
19.3169°
Arg. of periapsis
116.4521°
True anomaly
243.67028°
Mean anomaly
243.6774°
Eccentric anomaly
243.67384°
Mean motion
3.75559 °/min
Orbital period
95.86 mins
BSTAR
-0.000040598
Loading maneuver chart data...
Computing Atmospheric mass density...
Loading historical data...
Loading historical data...
Loading historical data...
Loading historical data...
Loading historical data...
Loading historical data...
Loading historical data...

Documentation

Showing up to 5 results
|